Location: Newark
(41.8083°N, 72.2500°W)
Time: 11:39:44
(UTC+00:00)

Explorer 11/Cluster Stage 4 - Pass Details

Date: 07 December 2021
Orbit: 467 x 1255 km, 28.8° (Epoch: 23 January)

Event Time Altitude Azimuth Distance (km) Brightness Sun altitude
Rises 07:52:07 0° 249° (WSW) 3,402 - -45.9°
Reaches altitude 10° 07:54:53 10° 236° (WSW) 2,599 - -45.4°
Maximum altitude 08:00:03 26° 182° (S) 1,899 - -44.4°
Exits shadow 08:04:13 16° 139° (SE) 2,551 9.4 -43.7°
Drops below altitude 10° 08:06:00 10° 130° (SE) 3,030 9.9 -43.3°
Sets 08:09:31 0° 119° (ESE) 4,083 10.8 -42.7°
